Stations météo

Publicité
Orange, France (7579): Température de l'air & dewpoint: 18.01.2019 11:00:00 - 24.01.2019 11:00:00 (CET)Orange, France (7579): Température de l'air 5cm: 18.01.2019 11:00:00 - 24.01.2019 11:00:00 (CET)Orange, France (7579): Vitesse du vent & gusts: 18.01.2019 11:00:00 - 24.01.2019 11:00:00 (CET)Orange, France (7579): Direction du vent: 18.01.2019 11:00:00 - 24.01.2019 11:00:00 (CET)Orange, France (7579): reduced air pressure: 18.01.2019 11:00:00 - 24.01.2019 11:00:00 (CET)Orange, France (7579): visibility: 18.01.2019 11:00:00 - 24.01.2019 11:00:00 (CET)Orange, France (7579): Quantités de précipitations: 18.01.2019 11:00:00 - 24.01.2019 11:00:00 (CET)
Date & Time tt [°C] td [°C] tt 5cm [°C] ff [km/h] ff [knt] fx [km/h] fx [knt] dd ppp [hPa] vv [km] rr [mm]
24.01.2019 11:00:00 4,2 -3,8 5,3 61 33 91 49 N 1003,7 17 0,0
24.01.2019 10:00:00 3,8 -3,5 3,2 49 27 87 47 N 1003,2 18 0,0
24.01.2019 09:00:00 2,9 -3,0 2,0 48 26 84 45 N 1002,0 21 0,0
24.01.2019 08:00:00 2,8 -2,7 1,8 49 27 87 47 N 1001,0 31 0,0
24.01.2019 07:00:00 2,9 -2,4 2,0 53 29 90 49 N 999,7 37 0,0
24.01.2019 06:00:00 2,9 -2,0 1,9 54 29 95 51 N 999,1 29 0,0
24.01.2019 05:00:00 2,8 -1,9 1,9 58 31 87 47 N 998,2 35 0,0
24.01.2019 04:00:00 2,8 -1,8 1,5 47 25 82 44 N 998,4 41 0,0
24.01.2019 03:00:00 2,3 -2,6 1,4 46 25 80 43 N 997,8 54 0,0
24.01.2019 02:00:00 2,5 -2,4 1,6 47 25 76 41 N 997,4 54 0,0
24.01.2019 01:00:00 2,5 -2,2 1,5 45 25 78 42 N 997,0 48 0,0
24.01.2019 00:00:00 2,5 -2,0 1,3 41 22 69 37 N 996,6 50 0,0
23.01.2019 23:00:00 2,4 -2,1 1,3 42 23 62 33 N 996,1 55 0,0
23.01.2019 22:00:00 2,4 -2,1 1,0 36 19 55 30 N 996,4 56 0,0
23.01.2019 21:00:00 2,2 -2,3 0,9 33 18 56 30 N 996,4 56 0,0
23.01.2019 20:00:00 2,4 -2,3 0,9 26 14 50 27 N 996,4 57 0,0
23.01.2019 19:00:00 2,4 -1,6 1,2 30 16 48 26 N 995,7 59 0,0
23.01.2019 18:00:00 2,6 -0,9 1,4 33 18 58 32 N 994,8 52 0,4
23.01.2019 17:00:00 2,2 -0,1 0,0 31 17 48 26 N 994,4 53 1,8
23.01.2019 16:00:00 0,8 -0,1 0,0 25 14 37 20 N 994,5 1,3 2,4
23.01.2019 15:00:00 4,9 -0,7 5,5 10 5 16 9 N 993,6 24 0,0
23.01.2019 14:00:00 5,5 0,1 8,5 4 2 12 7 ENE 994,2 20 0,0
23.01.2019 13:00:00 2,9 -0,9 2,6 8 5 13 7 ESE 995,4 8 0,0
23.01.2019 12:00:00 2,0 -1,8 3,0 0 0 4 2 N 996,7 7 0,0
23.01.2019 11:00:00 1,3 -1,8 1,8 0 0 4 2 N 997,1 7 0,0
23.01.2019 10:00:00 0,2 -1,9 -2,1 4 2 7 4 N 997,6 7 0,0
23.01.2019 09:00:00 -1,2 -3,1 -2,2 0 0 4 2 N 997,6 8 0,0
23.01.2019 08:00:00 -1,0 -3,4 -1,9 0 0 8 4 N 998,1 9 0,0
23.01.2019 07:00:00 -1,1 -2,7 -1,9 5 3 10 5 SE 998,8 7 0,0
23.01.2019 06:00:00 -0,8 -2,1 -4,9 0 0 10 5 N 999,4 6 0,0
23.01.2019 05:00:00 -1,5 -2,9 -5,4 4 2 14 8 WSW 999,9 5 0,0
23.01.2019 04:00:00 -0,9 -2,9 -5,7 5 3 11 6 W 1000,6 7 0,0
23.01.2019 03:00:00 0,7 -1,9 -2,5 9 5 21 11 NW 1001,0 8 0,0
23.01.2019 02:00:00 0,2 -3,4 -3,7 8 4 14 7 WNW 1001,7 10 0,0
23.01.2019 01:00:00 0,2 -3,5 -2,7 10 5 14 8 NNW 1002,1 11 0,0
23.01.2019 00:00:00 0,4 -3,5 -2,9 2 1 11 6 NNW 1003,1 12 0,0
22.01.2019 23:00:00 0,4 -3,9 -2,9 4 2 8 5 NNW 1003,7 10 0,0
22.01.2019 22:00:00 0,2 -3,7 -3,2 2 1 7 4 N 1004,2 14 0,0
22.01.2019 21:00:00 0,5 -4,5 -2,9 2 1 8 5 E 1004,8 14 0,0
22.01.2019 20:00:00 1,9 -4,2 -2,2 6 4 10 5 NW 1005,2 16 0,0
22.01.2019 19:00:00 3,7 -4,8 0,0 0 0 19 10 N 1005,2 20 0,0
22.01.2019 18:00:00 4,1 -3,9 2,7 11 6 24 13 N 1005,3 15 0,0
22.01.2019 17:00:00 5,5 -4,4 4,4 10 5 18 10 WNW 1005,5 26 0,0
22.01.2019 16:00:00 6,7 -5,3 7,3 14 8 31 17 NNW 1005,7 36 0,0
22.01.2019 15:00:00 7,6 -3,9 11,2 23 12 32 17 NNW 1006,5 17 0,0
22.01.2019 14:00:00 7,3 -2,7 11,5 21 11 39 21 N 1007,7 14 0,0
22.01.2019 13:00:00 5,9 -3,2 8,3 21 11 49 26 NNW 1009,5 14 0,0
22.01.2019 12:00:00 4,5 -2,8 6,8 35 19 51 28 N 1010,6 11 0,0
22.01.2019 11:00:00 3,6 -2,8 5,0 34 18 48 26 N 1011,8 10 0,0
22.01.2019 10:00:00 2,7 -3,0 1,9 29 15 44 24 NNW 1011,9 13 0,0
22.01.2019 09:00:00 1,4 -3,3 -0,7 29 16 46 25 N 1012,6 19 0,0
22.01.2019 08:00:00 1,1 -3,4 -0,1 32 17 51 28 N 1013,0 16 0,0
22.01.2019 07:00:00 1,0 -3,1 -0,3 26 14 46 25 NNW 1013,1 17 0,0
22.01.2019 06:00:00 1,1 -2,8 0,0 31 17 50 27 NNW 1013,2 15 0,0
22.01.2019 05:00:00 1,6 -2,5 0,6 33 18 58 31 N 1013,5 15 0,0
22.01.2019 04:00:00 1,8 -2,2 0,8 35 19 58 31 N 1014,4 14 0,0
22.01.2019 03:00:00 2,0 -1,8 1,0 32 17 55 30 NNW 1015,2 12 0,0
22.01.2019 02:00:00 2,5 -1,5 1,5 37 20 68 37 N 1015,5 14 0,0
22.01.2019 01:00:00 2,9 -1,1 1,5 31 17 54 29 NNW 1016,4 13 0,0
22.01.2019 00:00:00 3,0 -1,2 1,9 31 17 54 29 NNW 1016,9 16 0,0
21.01.2019 23:00:00 3,5 -1,1 2,3 29 16 58 31 NNW 1016,9 17 0,0
21.01.2019 22:00:00 4,0 -1,2 2,8 36 19 63 34 N 1016,5 19 0,0
21.01.2019 21:00:00 4,0 -0,4 2,6 31 17 63 34 NNW 1016,6 14 0,0
21.01.2019 20:00:00 4,4 -0,6 3,4 37 20 64 34 N 1016,2 16 0,0
21.01.2019 19:00:00 4,8 -0,4 3,7 40 22 61 33 N 1015,7 14 0,0
21.01.2019 18:00:00 5,1 -0,3 4,1 41 22 69 37 N 1015,6 15 0,0
21.01.2019 17:00:00 5,9 0,0 6,3 39 21 68 37 NNW 1015,5 17 0,0
21.01.2019 16:00:00 7,0 0,4 9,3 42 23 69 37 NNW 1015,6 12 0,0
21.01.2019 15:00:00 7,2 0,6 10,3 44 24 68 37 N 1015,6 11 0,0
21.01.2019 14:00:00 7,9 0,6 11,2 44 24 65 35 N 1015,6 10 0,0
21.01.2019 13:00:00 7,9 0,4 11,1 44 24 68 37 N 1015,9 9 0,0
21.01.2019 12:00:00 8,1 0,6 9,7 44 24 68 37 N 1016,3 9 0,0
21.01.2019 11:00:00 7,1 1,2 7,8 35 19 58 32 N 1016,6 8 0,0
21.01.2019 10:00:00 5,9 1,6 4,6 27 15 46 25 N 1016,7 8 0,0
21.01.2019 09:00:00 4,4 1,4 2,5 17 9 35 19 N 1016,3 9 0,0
21.01.2019 08:00:00 4,0 1,2 2,7 26 14 51 27 NNW 1015,8 10 0,0
21.01.2019 07:00:00 4,2 1,4 2,5 29 16 46 25 N 1015,3 12 0,0
21.01.2019 06:00:00 4,1 1,5 2,1 24 13 38 20 N 1014,9 11 0,0
21.01.2019 05:00:00 4,2 1,6 -0,2 24 13 36 19 NNW 1015,0 9 0,2
21.01.2019 04:00:00 1,9 0,1 -3,9 15 8 25 14 NNW 1015,3 11 0,0
21.01.2019 03:00:00 0,3 -1,0 -5,2 8 5 15 8 N 1015,5 11 0,0
21.01.2019 02:00:00 -0,3 -1,4 -6,4 9 5 13 7 NNW 1015,5 14 0,0
21.01.2019 01:00:00 -1,6 -2,7 -5,9 4 2 7 4 N 1015,7 6 0,0
21.01.2019 00:00:00 -1,1 -2,2 -5,5 4 2 7 4 N 1015,6 7 0,0
20.01.2019 23:00:00 -0,6 -2,2 -4,7 4 2 8 4 N 1015,4 9 0,0
20.01.2019 22:00:00 0,7 -1,1 -4,2 4 2 6 4 NE 1015,0 12 0,0
20.01.2019 21:00:00 1,5 -0,3 -3,9 4 2 13 7 N 1015,1 11 0,0
20.01.2019 20:00:00 2,1 -0,3 -2,7 3 2 6 4 ENE 1014,6 15 0,0
20.01.2019 19:00:00 2,7 -0,1 -2,7 4 2 6 3 SE 1014,2 19 0,0
20.01.2019 18:00:00 5,1 0,7 -1,5 0 0 5 3 N 1013,6 22 0,0
20.01.2019 17:00:00 9,3 1,4 9,7 4 2 7 4 S 1013,2 27 0,0
20.01.2019 16:00:00 10,5 1,8 9,7 3 2 7 4 S 1012,8 42 0,0
20.01.2019 15:00:00 9,0 1,4 9,7 4 2 8 4 WNW 1012,8 45 0,0
20.01.2019 14:00:00 9,1 1,0 10,6 4 2 15 8 NW 1012,9 47 0,0
20.01.2019 13:00:00 9,4 2,5 8,9 7 4 13 7 NNW 1013,3 20 0,0
20.01.2019 12:00:00 7,0 2,3 8,3 4 2 9 5 W 1013,6 12 0,0
20.01.2019 11:00:00 5,7 2,0 4,5 3 1 9 5 NNW 1013,6 9 0,0
20.01.2019 10:00:00 3,5 1,0 2,0 6 3 10 5 W 1013,2 11 0,0
20.01.2019 09:00:00 2,1 0,6 -0,3 5 3 10 5 NW 1012,8 10 0,0
20.01.2019 08:00:00 0,8 -0,8 -1,6 0 0 7 4 N 1012,4 12 0,0
20.01.2019 07:00:00 0,3 -1,5 -2,6 4 2 9 5 NNW 1012,3 14 0,0
20.01.2019 06:00:00 1,3 -0,5 -0,8 5 3 7 4 NE 1012,1 18 0,0
20.01.2019 05:00:00 1,5 -0,1 -0,7 2 1 6 3 WNW 1012,5 13 0,0
20.01.2019 04:00:00 1,3 -0,5 -0,1 4 2 5 3 N 1012,8 19 0,0
20.01.2019 03:00:00 1,4 -0,5 0,0 3 2 10 5 W 1013,1 21 0,0
20.01.2019 02:00:00 0,7 -0,9 -2,0 5 3 10 6 NE 1012,9 16 0,0
20.01.2019 01:00:00 -0,8 -2,4 -3,8 6 4 9 5 NE 1013,5 8 0,0
20.01.2019 00:00:00 -0,5 -2,2 -4,3 4 2 11 6 NW 1013,7 11 0,0
19.01.2019 23:00:00 0,2 -1,6 -3,4 4 2 9 5 NNE 1013,3 13 0,0
19.01.2019 22:00:00 -0,4 -2,3 -3,8 5 3 7 4 E 1013,3 14 0,0
19.01.2019 21:00:00 1,1 -2,0 -2,9 6 3 10 5 ENE 1013,1 17 0,0
19.01.2019 20:00:00 1,7 -1,6 -3,1 4 2 10 5 ENE 1013,1 18 0,0
19.01.2019 19:00:00 2,7 -1,7 -3,4 6 3 9 5 ENE 1012,9 20 0,0
19.01.2019 18:00:00 4,2 -2,4 -1,7 2 1 6 4 ENE 1012,6 29 0,0
19.01.2019 17:00:00 9,0 -1,7 8,4 5 3 10 6 WNW 1012,4 22 0,0
19.01.2019 16:00:00 10,5 -0,6 14,3 6 3 9 5 WSW 1012,5 31 0,0
19.01.2019 15:00:00 10,5 -0,4 15,5 3 2 10 6 W 1012,8 28 0,0
19.01.2019 14:00:00 10,0 -0,5 15,3 3 2 11 6 NNW 1013,6 26 0,0
19.01.2019 13:00:00 8,6 -0,5 12,5 0 0 9 5 N 1014,5 20 0,0
19.01.2019 12:00:00 6,6 -0,9 9,4 5 3 11 6 - 1015,6 10 0,0
19.01.2019 11:00:00 4,4 -1,0 5,4 5 3 8 5 WNW 1016,1 14 0,0
19.01.2019 10:00:00 1,5 -1,6 -2,4 3 1 6 3 W 1016,0 11 0,0
19.01.2019 09:00:00 -2,3 -3,7 -7,2 2 1 3 2 NE 1015,8 10 0,0
19.01.2019 08:00:00 -2,5 -3,8 -7,1 0 0 3 1 N 1015,5 10 0,0
19.01.2019 07:00:00 -2,6 -4,3 -6,4 0 0 5 3 N 1015,4 13 0,0
19.01.2019 06:00:00 -2,2 -4,2 -6,0 3 2 9 5 NE 1015,3 12 0,0
19.01.2019 05:00:00 -0,2 -3,2 -4,5 9 5 16 8 NNW 1015,5 17 0,0
19.01.2019 04:00:00 0,3 -3,1 -3,2 7 4 15 8 N 1015,8 22 0,0
19.01.2019 03:00:00 1,8 -2,3 -0,4 10 5 16 9 NNW 1015,9 25 0,0
19.01.2019 02:00:00 2,5 -2,4 0,7 10 5 21 11 NNW 1015,9 28 0,0
19.01.2019 01:00:00 3,0 -1,9 1,8 13 7 24 13 NNW 1015,9 27 0,0
19.01.2019 00:00:00 3,0 -1,9 1,6 16 9 28 15 N 1016,0 28 0,0
18.01.2019 23:00:00 3,4 -2,4 2,0 18 10 35 19 N 1015,8 50 0,0
18.01.2019 22:00:00 3,2 -2,3 1,9 17 9 26 14 NNW 1015,9 39 0,0
18.01.2019 21:00:00 3,4 -2,8 2,3 21 11 37 20 NNW 1015,9 46 0,0
18.01.2019 20:00:00 3,7 -2,9 2,6 25 14 44 24 NNW 1015,8 53 0,0
18.01.2019 19:00:00 4,3 -2,8 3,6 26 14 47 25 N 1015,5 54 0,0
18.01.2019 18:00:00 4,8 -3,0 3,8 29 15 42 23 N 1015,2 57 0,0
18.01.2019 17:00:00 5,4 -2,7 4,7 28 15 46 25 NNW 1015,1 55 0,0
18.01.2019 16:00:00 6,2 -2,4 6,5 28 15 49 27 N 1015,3 54 0,0
18.01.2019 15:00:00 7,3 -5,8 9,0 32 18 57 31 N 1015,3 32 0,0
18.01.2019 14:00:00 7,5 -6,6 9,7 36 20 59 32 NNW 1015,3 36 0,0
18.01.2019 13:00:00 7,0 -1,9 10,0 40 21 57 31 NNW 1016,5 41 0,0
18.01.2019 12:00:00 7,0 -0,7 8,3 31 17 57 31 N 1017,3 46 0,0
18.01.2019 11:00:00 6,1 -0,6 6,5 31 17 54 29 N 1017,8 52 0,0

tt = Température de l'air
td = dewpoint
tt 5cm = Température de l'air 5cm
ff = Vitesse du vent
fx = gusts
dd = Direction du vent
ppp = reduced air pressure
vv = visibility
rr = Quantités de précipitations

stations d'obs. à proximité